#timestamp,LO_Frequency,Hit,StdDev 
1638082815.3,286047000.2,N
1638082835.2,286047002.6,Y
1638082855.0,286047000.2,P
1638082855.9,286047000.2,N
1638082875.7,286047002.3,P
1638082895.6,286047002.2,N
1638082915.4,286047001.5,N
1638082935.2,286047001.3,N
1638082955.1,286047002.2,N
1638082956.0,286047002.2,N
1638082975.8,286047001.5,N
1638082995.6,286047001.7,N
1638083015.5,286047004.1,Y
1638083035.3,286047003.5,P
1638083055.1,286047003.2,P
1638083075.9,286047003.0,P
1638083095.7,286047005.9,Y
1638083115.5,286047001.3,P
1638083135.4,286047003.6,P
1638083155.2,286047006.0,P
1638083175.0,286047003.0,N
1638083175.9,286047003.0,N
1638083195.8,286047004.0,N
1638083215.6,286047006.0,Y
1638083235.4,286046999.7,P
1638083255.3,286047001.0,N
1638083275.1,286047001.8,N
1638083295.8,286047001.4,N
1638083315.7,286047003.7,Y
1638083335.5,286047003.9,P
1638083355.3,286047001.3,N
1638083375.2,286047004.1,P
1638083395.0,286047004.3,Y
1638083395.9,286047004.3,P
1638083415.8,286047002.2,N
1638083435.6,286047000.9,N
1638083455.4,286046999.9,N
1638083475.3,286047003.6,N
1638083495.1,286047001.4,N
1638083496.0,286047001.4,N
1638083515.8,286047004.4,Y
1638083535.7,286047001.4,P
1638083555.5,286047001.8,P
1638083575.3,286047003.9,P
1638083595.2,286047004.1,Y
1638083615.9,286046999.8,P
1638083635.7,286047000.1,N
1638083655.6,286047001.3,N
1638083675.4,286047002.1,N
1638083695.2,286047003.8,Y
1638083715.1,286047004.3,P
1638083716.0,286047004.3,N
1638083735.8,286047004.0,N
1638083755.6,286047005.1,Y
1638083775.5,286047001.8,P
1638083795.3,286047003.7,P
1638083815.1,286047003.1,P
1638083835.9,286047004.2,Y
1638083855.7,286046999.7,P
1638083875.5,286047000.5,N
1638083895.4,286047000.7,N
1638083915.2,286047002.7,N
1638083935.0,286047002.1,N
1638083935.9,286047002.1,N
1638083955.8,286047002.4,N
1638083975.6,286047000.2,N
1638083995.4,286047002.4,N
1638084015.3,286047001.9,N
1638084035.1,286047003.5,Y
1638084055.8,286047002.2,P
1638084075.7,286047002.5,P
1638084095.5,286047004.1,P
1638084115.3,286047003.3,Y
1638084135.2,286047002.5,P
1638084155.0,286047002.0,P
1638084155.9,286047002.0,P
1638084175.7,286047001.3,Y
1638084195.6,286047000.5,P
1638084215.4,286047000.2,N
1638084235.2,286047000.6,N
1638084255.1,286047002.8,Y
1638084256.0,286047002.8,P
1638084275.8,286047000.0,N
1638084295.6,286046999.9,N
1638084315.5,286047002.2,N
1638084335.3,286047001.4,N
1638084355.1,286047003.7,Y
1638084375.9,286047000.1,P
1638084395.7,286047001.6,N
1638084415.5,286047003.2,P
1638084435.4,286047003.8,Y
1638084455.2,286047004.1,P
1638084475.1,286047004.4,P
1638084476.0,286047004.4,P
1638084495.8,286047004.1,Y
1638084515.6,286047000.0,P
1638084535.5,286047000.9,N
1638084555.3,286047000.2,N
1638084575.1,286046998.3,N
1638084595.9,286046999.3,N
1638084615.7,286046997.6,N
1638084635.5,286046999.6,N
1638084655.4,286047000.7,N
1638084675.2,286046998.1,N
1638084695.0,286047000.3,N
1638084695.9,286047000.3,N
1638084715.8,286046999.9,N
1638084735.6,286047000.2,N
1638084755.4,286047002.4,N
1638084775.2,286047004.2,N
1638084795.1,286047001.5,N
1638084796.0,286047001.5,N
1638084815.8,286047004.3,N
1638084835.6,286047001.3,N
1638084855.5,286047001.4,N
1638084875.3,286047004.2,N
1638084895.1,286047003.8,N
1638084915.9,286047003.2,N
1638084935.7,286047003.8,N
1638084955.5,286047007.6,Y
1638084975.4,286047003.5,P
1638084995.2,286047005.5,P
1638085015.0,286047005.7,P
1638085016.0,286047005.7,Y
1638085035.8,286047001.8,P
1638085055.6,286047002.1,N
1638085075.4,286047004.1,P
1638085095.3,286047004.0,Y
1638085115.1,286046998.3,P
1638085135.9,286046998.4,N
1638085155.7,286046998.6,N
1638085175.5,286046998.5,N
1638085195.3,286047000.7,N
1638085215.2,286046999.7,N
1638085235.0,286047002.4,N
1638085235.9,286047002.4,N
1638085255.8,286047001.9,N
1638085275.6,286047001.9,N
1638085295.4,286047001.5,N
1638085315.2,286047001.8,N
1638085335.1,286047004.3,N
1638085336.0,286047004.3,N
1638085355.8,286047002.1,N
1638085375.6,286047003.4,N
1638085395.5,286047005.1,N
1638085415.3,286047004.7,N
1638085435.1,286047005.2,N
1638085455.9,286047004.7,N
1638085475.7,286047007.5,Y
1638085495.5,286047006.0,P
1638085515.4,286047005.0,N
1638085535.2,286047004.7,N
1638085555.0,286047006.7,Y
1638085556.0,286047006.7,P
1638085575.8,286047003.4,N
1638085595.6,286047003.2,N
1638085615.4,286047002.9,N
1638085635.3,286047004.4,Y
1638085655.1,286046996.6,P
1638085675.9,286046999.3,N
1638085695.7,286046998.5,N
1638085715.5,286047000.7,N
1638085735.3,286047000.8,N
1638085755.2,286046998.6,N
1638085775.0,286046998.4,N
1638085775.9,286046998.4,N
1638085795.7,286046999.3,N
1638085815.6,286046997.0,N
1638085835.4,286046999.5,N
1638085855.2,286047000.9,N
1638085875.1,286047001.0,N
1638085876.0,286047001.0,N
1638085895.8,286047002.7,N
1638085915.6,286046999.7,N
1638085935.5,286047003.9,N
1638085955.3,286047001.3,N
1638085975.1,286047004.2,N
1638085995.9,286047004.1,N
1638086015.7,286047003.8,N
1638086035.5,286047005.9,N
1638086055.4,286047004.4,N
1638086075.2,286047003.7,N
1638086095.0,286047003.4,N
1638086095.9,286047003.4,N
1638086115.8,286047006.0,N
1638086135.6,286047005.6,N
1638086155.4,286047003.3,N
1638086175.3,286047006.3,N
1638086195.1,286047006.1,N
1638086215.8,286047006.6,N
1638086235.7,286047006.4,N
1638086255.5,286047006.1,N
1638086275.3,286047006.7,N
1638086295.2,286047006.6,N
1638086315.0,286047009.2,Y
1638086315.9,286047009.2,P
1638086335.7,286047005.4,N
1638086355.6,286047005.0,N
1638086375.4,286047005.3,N
1638086395.2,286047003.6,N
